Wind_Speed
14 14 14 14 14 12 13 14 16 15 15 13 14 13 9 9 11 11 14 8 11 4 14 16 17 11 7 3 3 7 6 3 5 2 3 2 1 1 3 3 3 6 5 3 1 3 3 4 6 5 4 3 11 7
12 13 13 14 14 13 13 14 16 16 15 13 12 10 9 9 10 8 7 15 17 6 7 35 37 35 27 18 4 3 5 2 1 3 2 1 2 2 3 3 4 2 2 2 4 4 5 5 6 5 5 4 7 15
14 14 14 15 14 14 13 14 15 15 15 13 12 11 10 11 10 7 10 12 12 4 11 13 13 27 27 29 24 2 2 2 3 1 2 0 4 2 2 3 4 5 4 3 2 2 5 6 3 7 7 5 2 11
15 15 14 14 15 15 12 13 13 13 12 12 11 10 10 10 9 10 8 8 10 6 4 6 15 10 15 26 27 25 11 6 4 1 1 1 3 3 3 4 5 6 2 5 3 6 4 9 4 3 10 11 12 12
14 13 12 12 13 12 12 12 12 12 12 12 11 10 10 10 11 13 14 16 14 4 4 8 30 30 13 22 27 24 14 4 1 2 2 3 3 2 3 1 3 1 1 1 3 3 4 4 3 5 9 5 4 8
12 12 11 12 13 11 11 12 12 11 12 12 11 10 9 9 7 5 2 3 13 14 3 4 8 10 18 17 18 15 10 4 3 4 4 3 4 4 2 3 5 3 3 3 2 2 3 6 5 2 5 6 3 10
12 11 11 12 13 10 10 11 11 12 12 11 12 11 9 6 5 5 5 2 3 1 2 4 4 5 16 11 6 4 12 4 4 4 3 3 3 4 2 3 6 8 4 3 5 4 3 7 4 7 12 10 12 18
12 11 11 12 12 9 10 11 11 11 12 11 12 11 10 9 11 9 7 11 10 5 4 4 4 3 8 2 3 4 4 5 4 4 3 4 2 3 4 7 8 8 2 4 6 7 2 9 9 9 17 17 13 6
9 10 11 13 12 10 11 11 11 11 12 13 13 14 6 2 3 4 5 1 19 3 3 3 4 4 3 3 3 3 4 4 4 6 4 3 4 4 7 7 6 8 6 6 4 8 12 10 12 11 12 12 14 14
11 11 12 13 12 9 11 12 11 11 13 13 9 4 2 5 6 5 2 3 4 4 4 4 3 4 2 1 3 3 4 4 4 3 2 8 7 6 7 9 9 8 8 6 4 4 4 5 5 7 5 6 8 4
10 11 12 13 11 9 10 10 9 10 5 3 3 2 6 4 3 4 3 4 5 4 5 5 9 7 4 5 1 3 3 5 2 4 4 4 9 8 11 11 10 10 8 7 8 8 4 10 9 7 8 7 8 13
10 10 11 12 10 9 9 8 6 5 4 8 11 10 5 4 4 4 3 4 5 4 4 5 5 8 3 4 3 4 3 4 2 4 3 3 6 9 9 11 11 9 8 5 7 8 11 21 19 8 7 13 11 14
9 10 11 11 10 10 9 7 6 7 11 5 3 4 3 3 2 5 4 4 3 3 4 2 2 4 2 4 4 3 8 6 6 3 3 2 1 9 7 6 7 7 7 6 7 11 25 25 24 17 11 17 19 23
8 11 12 12 10 11 7 6 4 3 2 3 3 4 4 5 5 5 4 2 4 4 5 1 3 2 2 2 3 3 3 2 2 2 3 4 7 6 5 5 5 7 8 7 6 8 14 21 21 22 21 22 24 22
9 11 11 12 10 8 7 5 4 2 2 3 3 4 6 6 8 4 3 5 5 6 7 3 4 2 2 1 2 3 1 4 5 4 2 10 17 6 4 3 4 6 5 4 5 7 8 15 18 19 21 23 28 27
8 10 14 11 11 9 8 6 5 3 3 3 5 6 8 8 7 3 2 4 6 7 5 2 4 3 2 1 4 3 3 4 2 3 3 4 8 11 16 10 2 3 5 4 7 10 9 12 14 19 23 27 29 31
6 5 2 6 9 8 10 5 4 4 4 4 5 7 9 9 9 8 3 2 3 1 3 3 5 4 4 3 4 3 2 8 6 4 2 4 6 10 16 14 14 6 2 4 9 12 11 11 15 19 10 22 29 32
5 4 5 4 11 9 6 4 3 4 6 7 8 7 9 8 8 5 1 2 2 1 2 3 4 1 2 5 4 5 6 5 6 5 3 3 5 10 17 6 16 23 9 4 4 14 14 9 7 8 20 25 25 26
3 2 5 9 10 3 4 5 6 4 7 7 8 9 8 8 6 5 4 4 4 4 1 3 4 3 4 5 1 2 4 3 3 3 2 2 1 4 10 15 19 22 19 6 3 8 12 13 11 13 14 16 13 18
6 3 10 13 6 2 2 3 4 4 4 4 7 7 7 6 6 7 6 4 4 4 3 4 4 4 5 1 3 4 2 1 3 4 3 3 3 2 12 9 10 19 28 13 9 8 9 13 17 14 19 21 18 17
6 5 7 8 3 4 2 3 4 4 5 4 7 6 4 3 6 7 7 6 6 5 7 6 8 8 6 1 4 2 3 1 0 1 4 4 5 11 9 13 26 32 22 9 4 9 13 9 19 21 18 15 22 25
3 10 4 6 4 3 4 8 5 4 3 6 8 6 5 5 6 7 7 5 4 6 7 7 7 7 6 5 3 4 8 1 4 2 9 3 3 4 6 14 10 11 7 10 7 8 11 19 16 18 24 24 16 23
7 5 3 4 3 3 6 8 5 4 4 4 3 2 4 3 4 6 5 6 8 9 8 7 10 17 12 11 7 10 13 5 1 8 9 13 18 17 19 9 14 5 2 13 16 18 16 21 27 23 19 11 9 18
3 1 2 3 4 4 4 3 4 3 3 6 5 4 5 4 2 0 5 8 9 8 7 8 4 5 5 5 4 4 13 18 13 16 19 12 7 6 12 11 15 16 18 13 8 15 16 3 7 17 20 17 17 8
2 3 3 5 4 4 5 4 9 4 5 7 3 4 2 3 2 3 6 1 4 3 3 1 2 2 3 4 4 7 18 17 9 7 16 7 12 17 14 25 22 6 1 3 6 7 5 8 6 4 16 15 6 6
3 5 5 6 4 5 4 2 2 1 5 3 3 2 2 3 3 4 1 2 3 2 4 5 3 3 3 5 5 5 2 15 4 5 8 20 15 4 4 5 6 12 9 6 2 7 9 10 4 9 12 12 13 15
4 6 8 6 5 4 4 3 4 3 3 3 1 2 2 3 3 2 3 3 4 5 7 6 6 2 2 8 18 6 15 13 8 4 3 5 4 2 9 9 5 9 7 6 5 6 8 9 9 9 8 8 9 13
5 5 8 6 5 4 8 8 6 3 2 3 4 3 3 2 3 4 2 10 24 24 12 13 9 11 8 17 20 11 11 12 9 9 6 6 6 5 5 6 3 6 5 5 6 8 7 7 6 6 7 6 5 8
5 5 6 9 8 2 3 3 3 1 2 2 3 2 3 2 3 6 17 20 23 15 9 7 6 10 11 9 7 4 6 6 11 7 8 5 3 3 8 6 6 6 8 12 12 11 11 11 10 10 11 12 11 10
10 8 9 9 9 5 3 1 1 3 2 1 1 3 4 3 10 19 16 18 12 1 7 11 9 10 16 11 10 14 17 15 18 14 3 4 6 18 18 14 11 8 15 18 19 20 18 18 15 14 12 10 10 10
4 4 7 8 10 4 3 4 2 1 2 3 3 4 5 3 12 23 14 17 5 2 3 9 11 2 12 11 9 7 5 10 16 15 14 14 15 16 17 17 16 17 18 17 17 15 12 19 19 18 17 15 17 16
4 3 2 2 3 3 2 3 3 2 1 3 3 2 2 4 5 4 10 15 12 4 7 9 11 12 15 14 7 7 15 13 11 11 15 18 20 18 16 16 17 18 19 19 18 19 19 16 13 18 19 4 1 5
4 3 3 4 5 4 5 5 4 2 2 2 3 4 3 2 2 2 17 19 8 5 12 12 10 16 13 17 20 11 9 9 10 11 14 15 13 14 14 15 16 16 15 16 17 17 18 18 17 19 20 12 8 4
Wind_Direction
296 301 306 308 309 311 312 318 320 320 321 326 319 315 309 307 313 317 291 305 289 278 285 276 288 298 314 278 347 330 338 326 316 137 137 228 156 123 43 308 298 179 162 220 233 249 237 359 38 77 183 65 122 126
301 306 310 310 311 309 308 315 317 317 316 314 315 308 303 304 306 305 285 324 329 259 280 302 287 271 255 257 288 280 279 288 355 352 39 79 85 85 137 266 28 324 157 219 152 199 185 178 148 154 119 141 124 141
305 306 307 308 308 305 302 311 315 319 314 314 308 301 302 300 298 284 292 313 325 282 278 251 256 269 245 233 225 235 305 22 41 44 331 34 95 117 116 251 2 300 319 241 38 293 156 143 197 180 157 167 124 148
300 302 304 304 304 301 304 311 312 315 319 320 313 303 302 300 297 287 274 285 311 278 278 292 324 327 271 224 213 225 250 329 318 326 47 268 121 147 204 157 166 226 232 235 307 346 308 41 79 68 68 70 63 25
289 293 299 303 307 307 308 308 306 310 317 317 307 301 303 301 300 293 278 259 247 259 310 303 305 291 270 203 200 213 221 218 222 286 145 228 297 161 223 221 268 258 122 84 229 215 162 228 196 98 99 98 101 107
288 290 295 299 301 301 299 301 299 304 309 311 309 306 298 301 313 329 302 151 223 242 280 290 321 281 275 245 188 187 195 199 194 202 230 221 150 131 196 226 250 311 351 88 252 335 61 115 98 180 122 158 156 32
288 288 290 294 299 295 295 297 295 300 304 309 305 303 298 290 284 242 278 179 97 103 250 269 259 249 219 242 162 175 194 189 196 221 224 238 207 126 220 221 258 279 266 308 295 302 279 148 188 82 67 65 52 46
280 285 289 295 295 284 291 293 292 295 300 306 304 300 299 296 288 281 328 249 221 255 257 271 271 304 359 245 225 171 174 190 226 217 197 216 125 141 220 233 245 246 120 19 332 276 223 111 92 99 85 88 54 336
284 288 294 300 291 278 289 288 292 291 297 302 305 303 298 237 238 243 314 224 183 275 290 274 284 307 18 313 280 176 168 193 198 212 224 197 213 202 202 212 260 220 189 188 275 301 131 132 131 146 145 160 135 209
274 279 287 298 288 277 287 286 293 294 298 301 306 232 241 210 243 260 184 163 192 217 221 250 301 290 273 193 279 198 175 207 172 227 200 221 238 212 221 227 234 236 220 195 217 288 133 174 174 92 165 182 147 321
270 278 283 292 287 271 276 283 293 305 302 232 246 271 325 279 248 220 223 215 191 227 212 231 216 236 270 239 156 3 75 328 160 244 188 226 239 233 220 230 227 222 216 198 210 211 192 157 113 159 79 338 22 323
268 279 279 291 281 263 269 275 284 293 297 315 301 292 265 221 221 247 238 208 218 234 250 195 211 194 240 95 83 21 39 308 227 333 238 245 231 225 228 242 214 169 174 200 201 182 115 132 136 136 157 239 225 253
271 273 276 279 278 259 260 259 267 277 300 293 249 251 200 232 239 229 222 209 220 218 325 292 256 167 189 93 94 130 190 199 326 296 256 257 323 220 210 195 159 156 162 209 201 171 138 149 154 163 180 205 232 175
270 271 269 265 254 253 239 251 257 274 289 253 244 283 234 213 228 210 314 297 283 340 307 327 300 154 221 139 134 154 255 202 204 269 287 338 322 287 138 142 147 171 177 204 203 151 138 159 175 181 193 182 162 151
273 273 269 261 238 238 221 230 222 220 263 265 250 240 242 263 301 354 33 320 340 343 269 209 245 171 184 190 192 145 79 247 192 192 288 296 298 341 152 181 198 163 168 199 158 152 155 153 162 174 191 165 158 160
269 277 264 239 216 222 203 205 195 226 248 241 231 259 273 278 314 5 128 335 332 319 316 303 10 303 138 221 186 257 215 224 202 124 168 211 27 15 345 331 131 162 166 178 156 152 162 169 163 181 171 155 159 164
264 252 1 189 198 193 180 181 207 230 242 228 241 238 254 271 275 281 358 307 138 327 21 335 199 208 320 212 211 266 31 30 14 90 103 32 60 10 323 318 337 13 162 182 170 169 180 194 182 151 156 165 168 175
242 277 242 189 169 151 175 216 262 257 242 244 260 261 268 279 284 275 239 84 30 133 113 279 306 195 275 318 26 38 101 82 55 54 69 13 96 202 256 308 329 329 333 243 191 177 180 193 170 174 175 184 176 182
283 261 221 190 170 202 177 215 205 255 248 245 254 258 265 268 274 276 270 178 162 120 189 259 237 237 200 209 218 97 348 57 96 91 90 141 101 299 306 318 320 323 292 280 212 182 187 196 202 185 175 178 181 176
228 291 193 186 181 275 248 260 225 258 267 280 284 276 258 268 275 274 283 243 180 137 160 235 236 270 307 10 110 111 105 45 150 148 172 232 227 185 264 292 298 297 296 246 223 224 211 203 212 217 204 203 196 206
197 164 156 182 214 236 253 283 258 255 286 272 278 296 278 287 264 252 253 256 241 210 222 233 263 282 289 112 145 192 162 129 300 243 220 198 143 80 319 311 297 293 264 218 187 204 221 217 205 216 230 237 201 199
172 166 149 185 235 223 256 240 248 300 256 252 284 258 246 250 264 250 243 244 249 264 232 229 252 269 275 276 199 191 118 75 344 317 303 206 187 230 231 237 233 10 20 35 336 212 202 220 232 221 214 229 236 209
161 184 208 176 249 223 259 232 234 234 257 269 273 258 262 242 239 229 239 236 247 242 247 228 224 227 233 229 201 153 173 166 231 278 264 249 251 231 229 181 99 164 318 52 51 55 35 58 59 43 42 68 113 67
177 216 240 217 208 262 262 230 219 250 255 254 259 275 265 246 246 4 253 244 247 233 226 222 223 223 207 210 206 198 190 202 216 239 252 277 277 311 73 73 78 61 32 11 57 70 51 355 34 52 15 42 15 75
127 238 214 238 219 237 243 244 223 221 265 297 280 259 298 308 262 233 239 336 11 14 5 98 17 263 293 228 218 224 235 205 207 231 254 219 125 86 71 52 348 346 6 42 355 15 135 135 124 131 218 248 195 55
220 211 205 212 223 218 237 288 44 307 281 268 249 281 309 297 263 259 356 17 344 334 357 51 11 358 0 14 317 242 276 196 144 113 63 58 10 102 142 140 203 252 252 260 19 8 10 6 52 185 187 197 214 211
232 235 211 227 247 261 271 313 323 258 262 271 24 341 330 281 268 340 358 15 320 319 334 303 290 278 26 318 309 67 92 83 94 120 53 37 15 121 168 191 202 231 248 242 297 349 335 333 328 324 319 308 239 219
247 263 258 245 229 259 280 281 278 258 292 32 335 296 314 326 301 349 304 338 318 304 313 307 297 267 232 232 271 92 107 115 130 131 140 202 224 182 180 157 253 241 238 253 260 258 253 263 274 282 295 295 338 315
235 241 246 266 274 253 263 242 253 306 48 38 331 309 306 284 257 274 300 319 317 304 122 174 256 279 282 319 81 55 28 85 62 45 40 22 353 191 178 207 221 262 266 253 241 240 249 252 261 269 268 269 271 284
241 242 248 261 269 264 249 299 334 34 66 21 329 316 318 272 288 299 294 295 275 354 129 129 90 65 121 130 93 73 69 78 70 55 9 327 23 30 32 14 335 284 270 248 245 246 247 249 257 269 267 265 262 249
231 229 259 260 269 304 32 28 360 238 191 200 183 248 241 265 306 297 264 263 339 130 152 123 104 161 95 96 92 88 81 62 69 56 49 44 26 9 357 347 342 339 349 0 348 333 248 231 232 245 255 250 241 231
221 232 264 314 299 266 172 215 229 241 258 191 210 242 237 204 231 223 229 212 241 180 91 69 60 69 89 79 90 112 104 90 78 57 40 30 19 11 12 5 5 2 357 350 342 334 332 328 274 262 260 215 73 47
211 107 169 236 234 214 173 184 188 232 206 211 175 183 232 269 338 101 98 102 161 164 150 158 122 86 90 68 60 91 91 110 97 73 57 45 31 3 354 342 338 334 333 334 330 329 327 327 333 10 358 294 217 170
Height
832 832 831 829 828 827 825 824 822 820 818 815 814 812 810 809 809 807 801 800 801 793 776 773 771 771 767 762 769 756 749 746 747 754 760 762 762 769 772 764 770 780 790 791 784 789 794 750 753 775 772 762 766 771
830 829 828 827 826 824 823 822 820 818 816 813 812 810 808 808 807 806 802 798 796 792 777 767 764 761 763 761 763 758 755 750 753 759 751 751 763 765 770 789 758 782 768 782 776 780 755 748 753 750 752 759 760 768
827 826 825 824 823 821 820 819 818 816 814 811 810 809 807 806 805 804 802 799 796 790 772 762 748 741 747 749 753 760 751 744 746 743 752 757 770 765 784 785 775 762 753 769 761 749 747 745 743 745 747 750 751 759
824 823 822 821 820 819 817 816 815 815 812 810 808 806 805 804 802 801 800 799 799 794 783 753 744 739 738 738 743 745 746 743 746 747 754 757 764 756 773 766 777 770 756 759 759 751 742 752 748 746 753 752 757 756
820 820 819 818 817 816 816 814 813 812 810 808 807 805 803 802 799 797 795 794 796 798 787 767 751 729 729 731 734 739 743 745 751 756 755 766 752 757 757 756 761 748 754 766 771 750 752 750 749 746 750 753 751 754
817 816 815 815 815 814 813 812 811 809 808 806 804 803 801 799 797 796 792 791 793 794 791 775 740 730 725 725 727 732 738 743 746 752 751 744 738 753 765 767 748 741 739 742 751 738 740 743 750 748 749 750 752 762
813 813 812 812 811 811 811 809 808 807 806 804 802 801 799 797 796 796 791 790 790 791 789 772 745 719 717 719 722 728 731 736 741 744 746 744 743 745 756 766 747 743 736 736 735 735 739 747 752 753 754 760 762 768
810 810 809 809 809 808 808 806 806 805 804 802 800 798 796 794 793 789 784 784 790 790 784 770 746 731 722 724 729 722 731 733 735 738 737 743 742 744 764 745 739 735 732 733 736 733 734 743 750 757 755 758 762 775
807 807 806 807 806 806 805 804 803 802 801 799 797 795 793 792 790 785 783 781 785 789 782 761 751 746 723 727 723 721 724 738 728 737 738 738 743 756 740 736 732 730 731 733 733 733 737 745 752 753 752 756 755 770
805 805 804 804 804 803 803 802 801 799 799 797 795 794 788 786 784 784 783 784 785 779 777 764 746 748 731 732 731 725 722 731 739 732 724 735 736 727 726 725 724 723 723 725 732 737 744 743 744 745 748 750 751 764
801 802 801 801 800 801 801 800 799 797 796 795 791 786 785 784 783 779 777 775 768 764 753 742 741 744 729 732 732 732 741 742 744 737 733 733 731 723 717 717 715 715 717 719 722 725 725 731 741 747 744 748 749 759
797 799 798 798 798 799 798 798 797 797 795 795 794 788 784 780 777 774 767 758 754 749 731 732 728 728 726 727 739 746 754 750 741 731 732 733 717 711 710 705 703 707 711 714 717 720 724 731 737 736 738 744 750 760
794 795 795 795 796 796 796 796 796 795 794 792 791 784 778 773 780 769 757 749 743 732 724 720 722 719 722 732 747 753 757 759 735 741 733 714 704 701 701 702 702 703 707 711 713 716 724 729 733 734 736 740 747 754
791 792 793 793 793 794 794 794 795 795 795 791 784 790 776 764 755 748 746 743 732 729 726 722 727 721 718 725 740 750 745 742 749 748 736 719 712 701 697 697 701 704 706 709 711 713 718 726 732 734 735 740 744 749
789 790 790 789 790 791 793 793 794 795 794 790 783 780 762 748 743 740 745 744 739 735 728 729 721 719 723 726 727 738 744 735 738 749 747 730 730 706 700 702 702 703 704 707 709 712 715 719 725 730 733 737 741 746
787 787 784 785 787 789 791 793 793 794 791 786 780 769 756 750 743 743 747 749 743 738 729 724 727 728 726 726 732 730 725 728 720 719 724 726 720 718 724 709 701 702 704 705 707 710 714 717 720 725 729 733 738 743
786 784 783 783 786 788 790 792 792 790 783 774 765 757 755 751 745 740 738 740 744 742 745 745 739 738 724 728 724 713 720 724 717 719 722 719 718 715 722 720 712 705 704 705 706 709 712 715 718 722 727 731 736 739
783 783 783 784 785 788 790 791 789 782 773 764 758 752 747 741 740 736 735 739 742 745 747 745 733 736 739 728 725 726 723 723 720 723 724 725 720 729 727 723 719 715 708 706 706 708 711 714 717 719 723 726 730 735
781 782 783 784 785 786 787 787 785 779 762 754 748 745 743 739 736 734 733 734 737 739 746 741 736 733 728 726 727 725 724 723 724 727 728 728 726 724 720 717 716 715 710 707 708 709 711 714 717 719 721 724 727 730
781 780 782 784 785 785 782 779 776 768 755 745 741 739 735 734 732 731 730 730 734 739 745 740 727 721 719 717 717 720 720 721 723 725 729 727 725 718 722 719 718 716 715 706 705 707 710 711 713 715 717 720 722 725
781 781 783 785 786 786 785 778 770 761 753 746 737 736 733 729 728 727 725 723 725 723 724 720 719 716 714 713 714 714 715 717 718 720 720 722 714 716 715 713 714 713 709 700 701 702 704 707 708 709 712 714 716 719
779 781 782 784 783 782 779 771 763 757 754 742 736 731 728 727 725 721 717 719 717 714 711 712 712 712 712 712 711 712 714 716 714 715 715 718 717 717 716 717 722 710 708 702 699 698 698 700 705 705 706 708 710 711
780 781 781 781 781 779 771 762 761 752 746 732 724 726 721 718 713 709 713 706 706 702 702 702 704 705 707 706 707 709 712 712 712 709 711 710 707 709 707 705 704 712 708 706 704 705 709 707 705 707 709 708 707 710
780 780 778 777 776 772 761 753 750 745 737 733 727 723 718 713 707 713 710 702 695 693 695 695 697 697 699 701 704 705 706 707 708 708 706 704 703 703 705 706 704 706 709 710 708 706 707 715 710 708 716 715 720 711
781 780 779 778 769 767 751 742 737 738 733 727 727 720 715 714 713 709 702 697 694 695 693 693 694 695 697 696 696 697 698 700 702 702 702 702 705 704 710 705 717 713 707 709 711 710 711 709 706 706 715 715 717 712
778 770 770 753 751 749 738 733 736 737 732 727 721 721 719 718 713 703 701 700 699 696 696 698 698 697 697 699 700 693 693 692 696 700 702 700 704 704 706 707 713 713 711 710 711 709 707 706 707 710 708 709 711 711
769 756 748 744 740 738 736 733 731 730 731 724 723 723 724 722 711 708 706 704 702 700 700 697 696 697 699 701 695 692 692 694 696 697 698 698 702 703 705 708 710 709 709 709 708 706 705 705 704 704 704 707 707 708
754 740 737 735 736 731 732 730 729 728 722 724 724 722 719 723 718 714 710 709 703 698 696 696 699 698 700 701 698 695 695 697 698 699 700 701 702 703 704 705 705 706 706 706 705 704 704 703 703 703 704 704 705 705
744 735 733 733 730 730 728 727 726 722 725 729 731 730 726 720 718 714 710 708 704 704 698 698 695 693 696 700 699 698 697 696 699 701 702 703 703 702 702 703 702 703 704 704 702 703 703 704 704 703 702 701 701 701
735 730 730 729 729 727 724 722 724 727 730 733 733 732 728 720 713 711 711 707 703 699 699 698 697 696 698 699 702 702 702 704 706 710 711 708 709 707 705 705 704 703 701 701 701 700 700 701 702 701 700 699 698 698
721 722 724 723 722 720 723 726 727 728 730 730 732 731 731 724 714 702 704 702 704 701 700 699 700 700 701 702 702 703 706 707 706 710 712 711 710 708 707 706 704 701 700 698 697 696 695 694 694 695 695 694 695 695
718 720 724 729 730 726 726 727 725 724 723 724 724 722 720 720 713 703 698 701 703 700 700 700 700 701 701 704 705 705 707 709 710 711 711 710 709 708 706 704 703 701 700 698 697 695 693 693 691 691 688 687 688 690
715 721 728 728 720 715 715 721 721 719 718 716 715 715 713 707 704 698 699 704 705 702 702 703 704 705 707 709 709 710 710 711 712 713 713 713 712 711 709 707 705 703 701 699 697 695 693 691 689 687 683 681 682 684